Simultaneous Nadir Overpasses (SNOs) Predictions

Prediction of SNOs between METOP-B and TERRA Satellite Orbit:

Table of predicted SNOs for the next 14.0 days since TLE Epoch: 4/6/2017
Index Date (METOP-B) Time (METOP-B) Lat,Lon (METOP-B) SZA (METOP-B ) Date (TERRA) Time (TERRA) Lat,Lon (TERRA) SZA (TERRA ) Distance(km) Time Diff (sec)
1 04/08/2017 22:25:22 81.32,-108.97 76.56 04/08/2017 22:26:20 81.32,-108.82 76.61 2.62 58
2 04/08/2017 23:16:02 -81.32, 58.72 103.42 04/08/2017 23:15:47 -81.32, 58.76 103.42 0.73 15
3 04/11/2017 17:59:44 81.32, -42.63 75.54 04/11/2017 18:00:35 81.32, -42.53 75.57 1.73 51
4 04/11/2017 18:50:22 -81.33, 125.49 104.38 04/11/2017 18:50:00 -81.33, 125.44 104.40 1.07 22
5 04/14/2017 13:34:04 81.32, 24.08 74.58 04/14/2017 13:34:48 81.33, 24.10 74.61 0.51 44
6 04/14/2017 14:24:44 -81.33,-168.14 105.38 04/14/2017 14:24:15 -81.32,-168.30 105.41 2.67 29
7 04/17/2017 09:08:26 81.32, 90.38 73.60 04/17/2017 09:09:03 81.31, 90.31 73.60 1.54 37
8 04/17/2017 09:59:06 -81.33,-101.80 106.36 04/17/2017 09:58:29 -81.33,-101.70 106.36 1.74 37
9 04/20/2017 04:42:48 81.32, 156.67 72.63 04/20/2017 04:43:17 81.32, 156.86 72.67 3.10 29




NCC Satellite Simultaneous Nadir Overpasses (SNOs) Prediction Service
